Time,TemperatureF,DewpointF,PressureIn,WindDirection,WindDirectionDegrees,WindSpeedMPH,WindSpeedGustMPH,Humidity,HourlyPrecipIn,Conditions,Clouds,dailyrainin,SoftwareType,DateUTC
2013-05-26 00:33:00,51.0,-99.9,-100.00,WNW,289,-999.0,9.0,-999,-99.99,,,-99.99,,2013-05-26 04:33:00,
2013-05-26 00:43:00,51.0,-99.9,-100.00,WNW,289,-999.0,9.0,-999,-99.99,,,-99.99,,2013-05-26 04:43:00,
2013-05-26 00:52:00,50.0,-99.9,-100.00,West,281,5.0,7.0,-999,-99.99,,,-99.99,,2013-05-26 04:52:00,
2013-05-26 01:22:00,50.0,-99.9,-100.00,West,281,5.0,7.0,-999,-99.99,,,-99.99,,2013-05-26 05:22:00,
2013-05-26 01:32:00,50.0,-99.9,-100.00,West,281,5.0,7.0,-999,-99.99,,,-99.99,,2013-05-26 05:32:00,
2013-05-26 01:42:00,50.0,-99.9,-100.00,West,281,5.0,7.0,-999,-99.99,,,-99.99,,2013-05-26 05:42:00,
2013-05-26 01:52:00,49.0,-99.9,-100.00,NNW,334,5.0,7.0,-999,-99.99,,,-99.99,,2013-05-26 05:52:00,
2013-05-26 02:22:00,49.0,-99.9,-100.00,NNW,334,5.0,7.0,-999,-99.99,,,-99.99,,2013-05-26 06:22:00,
2013-05-26 02:32:00,49.0,-99.9,-100.00,NNW,334,5.0,7.0,-999,-99.99,,,-99.99,,2013-05-26 06:32:00,
2013-05-26 02:42:00,49.0,-99.9,-100.00,NNW,334,5.0,7.0,-999,-99.99,,,-99.99,,2013-05-26 06:42:00,
2013-05-26 02:52:00,47.0,-99.9,-100.00,WNW,296,-999.0,7.0,-999,-99.99,,,-99.99,,2013-05-26 06:52:00,
2013-05-26 03:22:00,47.0,-99.9,-100.00,WNW,296,-999.0,7.0,-999,-99.99,,,-99.99,,2013-05-26 07:22:00,
2013-05-26 03:32:00,47.0,-99.9,-100.00,WNW,296,-999.0,7.0,-999,-99.99,,,-99.99,,2013-05-26 07:32:00,
2013-05-26 03:42:00,47.0,-99.9,-100.00,WNW,296,-999.0,7.0,-999,-99.99,,,-99.99,,2013-05-26 07:42:00,
2013-05-26 03:52:00,49.0,-99.9,-100.00,WNW,288,7.0,14.0,-999,-99.99,,,-99.99,,2013-05-26 07:52:00,
2013-05-26 04:32:00,49.0,-99.9,-100.00,WNW,288,7.0,14.0,-999,-99.99,,,-99.99,,2013-05-26 08:32:00,
2013-05-26 04:42:00,49.0,-99.9,-100.00,WNW,288,7.0,14.0,-999,-99.99,,,-99.99,,2013-05-26 08:42:00,
2013-05-26 04:52:00,48.0,-99.9,-100.00,NW,306,8.0,12.0,-999,-99.99,,,-99.99,,2013-05-26 08:52:00,
2013-05-26 05:22:00,48.0,-99.9,-100.00,NW,306,8.0,12.0,-999,-99.99,,,-99.99,,2013-05-26 09:22:00,
2013-05-26 05:34:00,48.0,-99.9,-100.00,NW,306,8.0,12.0,-999,-99.99,,,-99.99,,2013-05-26 09:34:00,
2013-05-26 05:43:00,48.0,-99.9,-100.00,NW,306,8.0,12.0,-999,-99.99,,,-99.99,,2013-05-26 09:43:00,
2013-05-26 05:52:00,48.0,-99.9,-100.00,WSW,252,2.0,11.0,-999,-99.99,,,-99.99,,2013-05-26 09:52:00,
2013-05-26 06:23:00,48.0,-99.9,-100.00,WSW,252,2.0,11.0,-999,-99.99,,,-99.99,,2013-05-26 10:23:00,
2013-05-26 06:33:00,48.0,-99.9,-100.00,WSW,252,2.0,11.0,-999,-99.99,,,-99.99,,2013-05-26 10:33:00,
2013-05-26 06:43:00,48.0,-99.9,-100.00,WSW,252,2.0,11.0,-999,-99.99,,,-99.99,,2013-05-26 10:43:00,
2013-05-26 06:52:00,52.0,-99.9,-100.00,WNW,291,3.0,12.0,-999,-99.99,,,-99.99,,2013-05-26 10:52:00,
2013-05-26 07:23:00,52.0,-99.9,-100.00,WNW,291,3.0,12.0,-999,-99.99,,,-99.99,,2013-05-26 11:23:00,
2013-05-26 07:33:00,52.0,-99.9,-100.00,WNW,291,3.0,12.0,-999,-99.99,,,-99.99,,2013-05-26 11:33:00,
2013-05-26 07:43:00,52.0,-99.9,-100.00,WNW,291,3.0,12.0,-999,-99.99,,,-99.99,,2013-05-26 11:43:00,
2013-05-26 07:52:00,56.0,-99.9,-100.00,WNW,295,12.0,19.0,-999,-99.99,,,-99.99,,2013-05-26 11:52:00,
2013-05-26 08:22:00,56.0,-99.9,-100.00,WNW,295,12.0,19.0,-999,-99.99,,,-99.99,,2013-05-26 12:22:00,
2013-05-26 08:32:00,56.0,-99.9,-100.00,WNW,295,12.0,19.0,-999,-99.99,,,-99.99,,2013-05-26 12:32:00,
2013-05-26 08:42:00,56.0,-99.9,-100.00,WNW,295,12.0,19.0,-999,-99.99,,,-99.99,,2013-05-26 12:42:00,
2013-05-26 08:52:00,59.0,-99.9,-100.00,West,272,6.0,13.0,-999,-99.99,,,-99.99,,2013-05-26 12:52:00,
2013-05-26 09:22:00,59.0,-99.9,-100.00,West,272,6.0,13.0,-999,-99.99,,,-99.99,,2013-05-26 13:22:00,
2013-05-26 09:32:00,59.0,-99.9,-100.00,West,272,6.0,13.0,-999,-99.99,,,-99.99,,2013-05-26 13:32:00,
2013-05-26 09:42:00,59.0,-99.9,-100.00,West,272,6.0,13.0,-999,-99.99,,,-99.99,,2013-05-26 13:42:00,
2013-05-26 09:52:00,60.0,-99.9,-100.00,NW,306,6.0,16.0,-999,-99.99,,,-99.99,,2013-05-26 13:52:00,
2013-05-26 10:22:00,60.0,-99.9,-100.00,NW,306,6.0,16.0,-999,-99.99,,,-99.99,,2013-05-26 14:22:00,
2013-05-26 10:32:00,60.0,-99.9,-100.00,NW,306,6.0,16.0,-999,-99.99,,,-99.99,,2013-05-26 14:32:00,
2013-05-26 10:42:00,60.0,-99.9,-100.00,NW,306,6.0,16.0,-999,-99.99,,,-99.99,,2013-05-26 14:42:00,
2013-05-26 10:52:00,62.0,-99.9,-100.00,West,275,13.0,24.0,-999,-99.99,,,-99.99,,2013-05-26 14:52:00,
2013-05-26 11:33:00,62.0,-99.9,-100.00,West,275,13.0,24.0,-999,-99.99,,,-99.99,,2013-05-26 15:33:00,
2013-05-26 11:43:00,62.0,-99.9,-100.00,West,275,13.0,24.0,-999,-99.99,,,-99.99,,2013-05-26 15:43:00,
2013-05-26 11:52:00,64.0,-99.9,-100.00,West,259,15.0,20.0,-999,-99.99,,,-99.99,,2013-05-26 15:52:00,
2013-05-26 12:33:00,64.0,-99.9,-100.00,West,259,15.0,20.0,-999,-99.99,,,-99.99,,2013-05-26 16:33:00,
2013-05-26 12:43:00,64.0,-99.9,-100.00,West,259,15.0,20.0,-999,-99.99,,,-99.99,,2013-05-26 16:43:00,
2013-05-26 12:52:00,65.0,-99.9,-100.00,WNW,285,8.0,18.0,-999,-99.99,,,-99.99,,2013-05-26 16:52:00,
2013-05-26 13:32:00,65.0,-99.9,-100.00,WNW,285,8.0,18.0,-999,-99.99,,,-99.99,,2013-05-26 17:32:00,
2013-05-26 13:42:00,65.0,-99.9,-100.00,WNW,285,8.0,18.0,-999,-99.99,,,-99.99,,2013-05-26 17:42:00,
2013-05-26 14:52:00,67.0,-99.9,-100.00,WNW,286,14.0,22.0,-999,-99.99,,,-99.99,,2013-05-26 18:52:00,
2013-05-26 15:22:00,67.0,-99.9,-100.00,WNW,286,14.0,22.0,-999,-99.99,,,-99.99,,2013-05-26 19:22:00,
2013-05-26 15:32:00,67.0,-99.9,-100.00,WNW,286,14.0,22.0,-999,-99.99,,,-99.99,,2013-05-26 19:32:00,
2013-05-26 15:42:00,67.0,-99.9,-100.00,WNW,286,14.0,22.0,-999,-99.99,,,-99.99,,2013-05-26 19:42:00,
2013-05-26 15:52:00,69.0,-99.9,-100.00,South,185,3.0,13.0,-999,-99.99,,,-99.99,,2013-05-26 19:52:00,
2013-05-26 16:22:00,69.0,-99.9,-100.00,South,185,3.0,13.0,-999,-99.99,,,-99.99,,2013-05-26 20:22:00,
2013-05-26 16:32:00,69.0,-99.9,-100.00,South,185,3.0,13.0,-999,-99.99,,,-99.99,,2013-05-26 20:32:00,
2013-05-26 16:42:00,69.0,-99.9,-100.00,South,185,3.0,13.0,-999,-99.99,,,-99.99,,2013-05-26 20:42:00,
2013-05-26 16:52:00,68.0,-99.9,-100.00,NW,312,9.0,20.0,-999,-99.99,,,-99.99,,2013-05-26 20:52:00,
2013-05-26 17:33:00,68.0,-99.9,-100.00,NW,312,9.0,20.0,-999,-99.99,,,-99.99,,2013-05-26 21:33:00,
2013-05-26 17:43:00,68.0,-99.9,-100.00,NW,312,9.0,20.0,-999,-99.99,,,-99.99,,2013-05-26 21:43:00,
2013-05-26 17:52:00,68.0,-99.9,-100.00,WSW,253,-999.0,15.0,-999,-99.99,,,-99.99,,2013-05-26 21:52:00,
2013-05-26 18:23:00,68.0,-99.9,-100.00,WSW,253,-999.0,15.0,-999,-99.99,,,-99.99,,2013-05-26 22:23:00,
2013-05-26 18:33:00,68.0,-99.9,-100.00,WSW,253,-999.0,15.0,-999,-99.99,,,-99.99,,2013-05-26 22:33:00,
2013-05-26 18:43:00,68.0,-99.9,-100.00,WSW,253,-999.0,15.0,-999,-99.99,,,-99.99,,2013-05-26 22:43:00,
2013-05-26 18:52:00,67.0,-99.9,-100.00,WSW,256,10.0,18.0,-999,-99.99,,,-99.99,,2013-05-26 22:52:00,
2013-05-26 19:22:00,67.0,-99.9,-100.00,WSW,256,10.0,18.0,-999,-99.99,,,-99.99,,2013-05-26 23:22:00,
2013-05-26 19:32:00,67.0,-99.9,-100.00,WSW,256,10.0,18.0,-999,-99.99,,,-99.99,,2013-05-26 23:32:00,
2013-05-26 19:43:00,67.0,-99.9,-100.00,WSW,256,10.0,18.0,-999,-99.99,,,-99.99,,2013-05-26 23:43:00,
2013-05-26 19:52:00,65.0,-99.9,-100.00,WNW,285,8.0,9.0,-999,-99.99,,,-99.99,,2013-05-26 23:52:00,
2013-05-26 20:22:00,65.0,-99.9,-100.00,WNW,285,8.0,9.0,-999,-99.99,,,-99.99,,2013-05-27 00:22:00,
2013-05-26 20:32:00,65.0,-99.9,-100.00,WNW,285,8.0,9.0,-999,-99.99,,,-99.99,,2013-05-27 00:32:00,
2013-05-26 20:42:00,65.0,-99.9,-100.00,WNW,285,8.0,9.0,-999,-99.99,,,-99.99,,2013-05-27 00:42:00,
2013-05-26 20:52:00,60.0,-99.9,-100.00,WNW,296,-999.0,-999.0,-999,-99.99,,,-99.99,,2013-05-27 00:52:00,
2013-05-26 21:22:00,60.0,-99.9,-100.00,WNW,296,-999.0,-999.0,-999,-99.99,,,-99.99,,2013-05-27 01:22:00,
2013-05-26 21:32:00,60.0,-99.9,-100.00,WNW,296,-999.0,-999.0,-999,-99.99,,,-99.99,,2013-05-27 01:32:00,
2013-05-26 21:42:00,60.0,-99.9,-100.00,WNW,296,-999.0,-999.0,-999,-99.99,,,-99.99,,2013-05-27 01:42:00,
2013-05-26 21:52:00,57.0,-99.9,-100.00,WNW,296,-999.0,-999.0,-999,-99.99,,,-99.99,,2013-05-27 01:52:00,
2013-05-26 22:22:00,57.0,-99.9,-100.00,WNW,296,-999.0,-999.0,-999,-99.99,,,-99.99,,2013-05-27 02:22:00,
2013-05-26 22:32:00,57.0,-99.9,-100.00,WNW,296,-999.0,-999.0,-999,-99.99,,,-99.99,,2013-05-27 02:32:00,
2013-05-26 22:43:00,57.0,-99.9,-100.00,WNW,296,-999.0,-999.0,-999,-99.99,,,-99.99,,2013-05-27 02:43:00,
2013-05-26 22:52:00,54.0,-99.9,-100.00,WNW,296,-999.0,-999.0,-999,-99.99,,,-99.99,,2013-05-27 02:52:00,
2013-05-26 23:33:00,54.0,-99.9,-100.00,WNW,296,-999.0,-999.0,-999,-99.99,,,-99.99,,2013-05-27 03:33:00,
2013-05-26 23:43:00,54.0,-99.9,-100.00,WNW,296,-999.0,-999.0,-999,-99.99,,,-99.99,,2013-05-27 03:43:00,
2013-05-26 23:52:00,52.0,-99.9,-100.00,WNW,296,-999.0,-999.0,-999,-99.99,,,-99.99,,2013-05-27 03:52:00,